TimeEST,TemperatureF,Dew PointF,Humidity,Sea Level PressureIn,VisibilityMPH,Wind Direction,Wind SpeedMPH,Gust SpeedMPH,PrecipitationIn,Events,Conditions,WindDirDegrees,DateUTC
12:52 AM,30.0,17.1,59,30.14,10.0,West,6.9,-,N/A,,Clear,270,2013-02-25 05:52:00
1:52 AM,27.0,17.1,66,30.14,10.0,WSW,5.8,-,N/A,,Clear,250,2013-02-25 06:52:00
2:52 AM,27.0,18.0,69,30.13,10.0,WSW,5.8,-,N/A,,Clear,250,2013-02-25 07:52:00
3:52 AM,28.0,18.0,66,30.15,10.0,SW,6.9,-,N/A,,Clear,230,2013-02-25 08:52:00
4:52 AM,28.4,17.6,64,30.14,10.0,WSW,4.6,-,N/A,,Clear,240,2013-02-25 09:52:00
5:52 AM,25.0,17.1,72,30.19,10.0,SW,8.1,-,N/A,,Clear,220,2013-02-25 10:52:00
6:52 AM,25.0,17.1,72,30.20,10.0,SW,5.8,-,N/A,,Partly Cloudy,230,2013-02-25 11:52:00
7:52 AM,30.0,19.9,66,30.20,10.0,SW,5.8,-,N/A,,Partly Cloudy,230,2013-02-25 12:52:00
8:51 AM,28.4,24.8,86,30.16,10.0,East,6.9,-,N/A,,Clear,100,2013-02-25 13:51:00
8:52 AM,34.0,19.9,56,30.22,10.0,WNW,6.9,-,N/A,,Mostly Cloudy,290,2013-02-25 13:52:00
9:52 AM,37.9,19.0,47,30.22,10.0,WNW,8.1,-,N/A,,Mostly Cloudy,300,2013-02-25 14:52:00
10:52 AM,41.0,19.0,41,30.22,10.0,Variable,6.9,-,N/A,,Mostly Cloudy,0,2013-02-25 15:52:00
11:52 AM,43.0,19.0,38,30.22,10.0,ENE,3.5,-,N/A,,Mostly Cloudy,60,2013-02-25 16:52:00
12:52 PM,44.1,19.9,38,30.20,10.0,WSW,6.9,-,N/A,,Mostly Cloudy,250,2013-02-25 17:52:00
1:52 PM,44.1,19.9,38,30.19,10.0,WSW,3.5,-,N/A,,Mostly Cloudy,240,2013-02-25 18:52:00
2:52 PM,46.0,19.9,35,30.17,10.0,NNE,3.5,-,N/A,,Mostly Cloudy,30,2013-02-25 19:52:00
3:52 PM,45.0,19.9,37,30.16,10.0,South,3.5,-,N/A,,Mostly Cloudy,170,2013-02-25 20:52:00
4:52 PM,46.9,19.9,34,30.17,10.0,Calm,Calm,-,N/A,,Partly Cloudy,0,2013-02-25 21:52:00
5:52 PM,43.0,21.0,42,30.17,10.0,Calm,Calm,-,N/A,,Partly Cloudy,0,2013-02-25 22:52:00
6:52 PM,37.9,24.1,57,30.20,10.0,Variable,3.5,-,N/A,,Partly Cloudy,0,2013-02-25 23:52:00
7:52 PM,34.0,23.0,64,30.21,10.0,South,3.5,-,N/A,,Partly Cloudy,170,2013-02-26 00:52:00
8:52 PM,36.0,21.9,57,30.22,10.0,SE,4.6,-,N/A,,Partly Cloudy,140,2013-02-26 01:52:00
9:52 PM,35.1,21.9,59,30.21,10.0,SE,5.8,-,N/A,,Clear,140,2013-02-26 02:52:00
10:52 PM,34.0,21.9,61,30.19,10.0,SE,4.6,-,N/A,,Clear,130,2013-02-26 03:52:00
11:52 PM,33.1,21.9,64,30.21,10.0,South,3.5,-,N/A,,Clear,170,2013-02-26 04:52:00